Time,TemperatureF,DewpointF,PressureIn,WindDirection,WindDirectionDegrees,WindSpeedMPH,WindSpeedGustMPH,Humidity,HourlyPrecipIn,Conditions,Clouds,dailyrainin,SoftwareType,DateUTC
2013-07-05 00:00:00,68.3,64.9,30.12,South,172,0.0,1.0,89,0.00,,SCT048,0.00,VWS V13.01,2013-07-05 04:00:00,
2013-07-05 00:01:00,68.3,64.9,30.12,South,172,0.0,0.0,89,0.00,,SCT048,0.00,VWS V13.01,2013-07-05 04:01:00,
2013-07-05 00:06:00,68.3,65.3,30.12,South,172,0.0,0.0,90,0.00,,SCT048,0.00,VWS V13.01,2013-07-05 04:06:00,
2013-07-05 00:11:00,68.3,64.9,30.12,South,173,2.0,6.0,89,0.00,,SCT048,0.00,VWS V13.01,2013-07-05 04:11:00,
2013-07-05 00:16:00,68.2,65.2,30.12,South,173,0.0,6.0,90,0.00,,SCT048,0.00,VWS V13.01,2013-07-05 04:16:00,
2013-07-05 00:21:00,68.2,65.2,30.12,South,173,0.0,6.0,90,0.00,,SCT048,0.00,VWS V13.01,2013-07-05 04:21:00,
2013-07-05 00:26:00,68.3,65.3,30.12,South,173,0.0,6.0,90,0.00,,SCT048,0.00,VWS V13.01,2013-07-05 04:26:00,
2013-07-05 00:31:00,68.3,65.3,30.12,SSE,150,5.0,6.0,90,0.00,,SCT048,0.00,VWS V13.01,2013-07-05 04:31:00,
2013-07-05 00:36:00,68.4,65.4,30.11,SE,143,5.0,7.0,90,0.00,,SCT048,0.00,VWS V13.01,2013-07-05 04:36:00,
2013-07-05 00:41:00,68.4,65.4,30.12,SSE,163,6.0,7.0,90,0.00,,SCT048,0.00,VWS V13.01,2013-07-05 04:41:00,
2013-07-05 00:46:00,68.5,65.1,30.11,SSE,148,4.0,7.0,89,0.00,,SCT048,0.00,VWS V13.01,2013-07-05 04:46:00,
2013-07-05 00:51:00,68.5,65.1,30.11,SE,145,0.0,7.0,89,0.00,,SCT048,0.00,VWS V13.01,2013-07-05 04:51:00,
2013-07-05 00:56:00,68.5,65.1,30.11,SSE,151,0.0,7.0,89,0.00,,SCT048,0.00,VWS V13.01,2013-07-05 04:56:00,
2013-07-05 01:01:00,68.5,65.1,30.11,SSE,151,0.0,0.0,89,0.00,,SCT048,0.00,VWS V13.01,2013-07-05 05:01:00,
2013-07-05 01:06:00,68.4,65.0,30.11,SSE,151,0.0,0.0,89,0.00,,SCT048,0.00,VWS V13.01,2013-07-05 05:06:00,
2013-07-05 01:11:00,68.4,65.0,30.11,SSE,151,0.0,0.0,89,0.00,,SCT048,0.00,VWS V13.01,2013-07-05 05:11:00,
2013-07-05 01:16:00,68.3,64.9,30.11,SSE,152,5.0,6.0,89,0.00,,SCT048,0.00,VWS V13.01,2013-07-05 05:16:00,
2013-07-05 01:21:00,68.3,65.3,30.11,SSE,161,0.0,7.0,90,0.00,,SCT048,0.00,VWS V13.01,2013-07-05 05:21:00,
2013-07-05 01:26:00,68.3,65.3,30.11,SSE,161,0.0,7.0,90,0.00,,SCT048,0.00,VWS V13.01,2013-07-05 05:26:00,
2013-07-05 01:31:00,68.2,64.8,30.10,SSE,161,0.0,0.0,89,0.00,,SCT048,0.00,VWS V13.01,2013-07-05 05:31:00,
2013-07-05 01:36:00,68.2,64.8,30.11,SSE,161,0.0,0.0,89,0.00,,SCT048,0.00,VWS V13.01,2013-07-05 05:36:00,
2013-07-05 01:41:00,68.1,64.7,30.11,SSE,161,0.0,0.0,89,0.00,,SCT048,0.00,VWS V13.01,2013-07-05 05:41:00,
2013-07-05 01:46:00,68.0,64.6,30.11,SSE,161,0.0,0.0,89,0.00,,SCT048,0.00,VWS V13.01,2013-07-05 05:46:00,
2013-07-05 01:51:00,67.9,64.5,30.11,SSE,161,0.0,0.0,89,0.00,,SCT048,0.00,VWS V13.01,2013-07-05 05:51:00,
2013-07-05 01:56:00,67.9,64.5,30.11,SSE,161,0.0,0.0,89,0.00,,SCT048,0.00,VWS V13.01,2013-07-05 05:56:00,
2013-07-05 02:01:00,67.8,64.8,30.11,SSE,161,0.0,0.0,90,0.00,,SCT048,0.00,VWS V13.01,2013-07-05 06:01:00,
2013-07-05 02:06:00,67.8,64.8,30.11,SSE,162,0.0,2.0,90,0.00,,SCT048,0.00,VWS V13.01,2013-07-05 06:06:00,
2013-07-05 02:11:00,67.8,64.8,30.12,SSE,167,5.0,6.0,90,0.00,,SCT048,0.00,VWS V13.01,2013-07-05 06:11:00,
2013-07-05 02:16:00,67.8,64.8,30.11,SSE,168,5.0,6.0,90,0.00,,SCT048,0.00,VWS V13.01,2013-07-05 06:16:00,
2013-07-05 02:21:00,67.8,64.8,30.11,South,171,4.0,7.0,90,0.00,,SCT048,0.00,VWS V13.01,2013-07-05 06:21:00,
2013-07-05 02:26:00,67.8,64.8,30.11,South,176,7.0,7.0,90,0.00,,SCT048,0.00,VWS V13.01,2013-07-05 06:26:00,
2013-07-05 02:31:00,67.8,64.8,30.11,South,181,2.0,7.0,90,0.00,,SCT048,0.00,VWS V13.01,2013-07-05 06:31:00,
2013-07-05 02:36:00,67.8,64.8,30.12,South,185,3.0,8.0,90,0.00,,SCT048,0.00,VWS V13.01,2013-07-05 06:36:00,
2013-07-05 02:41:00,67.8,64.8,30.11,South,185,0.0,8.0,90,0.00,,SCT048,0.00,VWS V13.01,2013-07-05 06:41:00,
2013-07-05 02:46:00,67.8,64.8,30.11,South,185,0.0,8.0,90,0.00,,SCT048,0.00,VWS V13.01,2013-07-05 06:46:00,
2013-07-05 02:51:00,67.7,64.7,30.11,South,185,3.0,8.0,90,0.00,,SCT048,0.00,VWS V13.01,2013-07-05 06:51:00,
2013-07-05 02:56:00,67.7,64.7,30.11,South,186,6.0,8.0,90,0.00,,SCT048,0.00,VWS V13.01,2013-07-05 06:56:00,
2013-07-05 03:01:00,67.7,64.7,30.11,South,186,0.0,0.0,90,0.00,,SCT048,0.00,VWS V13.01,2013-07-05 07:01:00,
2013-07-05 03:06:00,67.7,64.7,30.11,South,186,0.0,6.0,90,0.00,,SCT048,0.00,VWS V13.01,2013-07-05 07:06:00,
2013-07-05 03:11:00,67.7,65.0,30.11,South,182,4.0,7.0,91,0.00,,SCT048,0.00,VWS V13.01,2013-07-05 07:11:00,
2013-07-05 03:16:00,67.7,65.0,30.11,South,181,6.0,7.0,91,0.00,,SCT048,0.00,VWS V13.01,2013-07-05 07:16:00,
2013-07-05 03:21:00,67.7,65.0,30.11,South,179,4.0,9.0,91,0.00,,SCT048,0.00,VWS V13.01,2013-07-05 07:21:00,
2013-07-05 03:26:00,67.6,64.9,30.11,South,180,3.0,9.0,91,0.00,,SCT048,0.00,VWS V13.01,2013-07-05 07:26:00,
2013-07-05 03:31:00,67.6,64.6,30.10,South,180,3.0,4.0,90,0.00,,SCT048,0.00,VWS V13.01,2013-07-05 07:31:00,
2013-07-05 03:36:00,67.4,64.4,30.10,South,180,5.0,5.0,90,0.00,,SCT048,0.00,VWS V13.01,2013-07-05 07:36:00,
2013-07-05 03:41:00,67.3,64.3,30.10,South,180,0.0,5.0,90,0.00,,SCT048,0.00,VWS V13.01,2013-07-05 07:41:00,
2013-07-05 03:46:00,67.1,64.1,30.10,South,180,0.0,5.0,90,0.00,,SCT048,0.00,VWS V13.01,2013-07-05 07:46:00,
2013-07-05 03:51:00,67.0,64.3,30.10,South,180,0.0,5.0,91,0.00,,SCT048,0.00,VWS V13.01,2013-07-05 07:51:00,
2013-07-05 03:56:00,66.9,64.2,30.10,South,180,0.0,5.0,91,0.00,,SCT048,0.00,VWS V13.01,2013-07-05 07:56:00,
2013-07-05 04:01:00,66.9,64.2,30.10,South,180,0.0,0.0,91,0.00,,SCT048,0.00,VWS V13.01,2013-07-05 08:01:00,
2013-07-05 04:06:00,66.7,64.0,30.10,South,180,0.0,0.0,91,0.00,,SCT048,0.00,VWS V13.01,2013-07-05 08:06:00,
2013-07-05 04:11:00,66.7,64.0,30.10,South,180,0.0,0.0,91,0.00,,SCT048,0.00,VWS V13.01,2013-07-05 08:11:00,
2013-07-05 04:16:00,66.7,64.0,30.10,South,180,0.0,0.0,91,0.00,,SCT048,0.00,VWS V13.01,2013-07-05 08:16:00,
2013-07-05 04:21:00,66.6,63.9,30.10,South,180,0.0,0.0,91,0.00,,SCT048,0.00,VWS V13.01,2013-07-05 08:21:00,
2013-07-05 04:26:00,66.6,63.9,30.10,South,180,0.0,0.0,91,0.00,,SCT048,0.00,VWS V13.01,2013-07-05 08:26:00,
2013-07-05 04:31:00,66.5,63.8,30.10,South,180,0.0,0.0,91,0.00,,SCT048,0.00,VWS V13.01,2013-07-05 08:31:00,
2013-07-05 04:36:00,66.4,63.7,30.10,South,180,0.0,0.0,91,0.00,,SCT048,0.00,VWS V13.01,2013-07-05 08:36:00,
2013-07-05 04:41:00,66.3,63.6,30.11,South,180,0.0,0.0,91,0.00,,SCT048,0.00,VWS V13.01,2013-07-05 08:41:00,
2013-07-05 04:46:00,66.1,63.4,30.11,South,180,0.0,0.0,91,0.00,,SCT048,0.00,VWS V13.01,2013-07-05 08:46:00,
2013-07-05 04:51:00,66.0,63.3,30.10,South,180,0.0,0.0,91,0.00,,SCT048,0.00,VWS V13.01,2013-07-05 08:51:00,
2013-07-05 04:56:00,65.9,63.2,30.11,South,180,0.0,0.0,91,0.00,,SCT048,0.00,VWS V13.01,2013-07-05 08:56:00,
2013-07-05 05:01:00,65.9,63.2,30.10,South,180,0.0,0.0,91,0.00,,SCT048,0.00,VWS V13.01,2013-07-05 09:01:00,
2013-07-05 05:06:00,65.8,63.1,30.10,South,180,0.0,0.0,91,0.00,,SCT048,0.00,VWS V13.01,2013-07-05 09:06:00,
2013-07-05 05:11:00,65.8,63.4,30.10,South,180,0.0,0.0,92,0.00,,SCT048,0.00,VWS V13.01,2013-07-05 09:11:00,
2013-07-05 05:16:00,65.9,63.5,30.10,South,180,0.0,0.0,92,0.00,,SCT048,0.00,VWS V13.01,2013-07-05 09:16:00,
2013-07-05 05:22:00,65.8,63.4,30.10,South,180,0.0,0.0,92,0.00,,SCT048,0.00,VWS V13.01,2013-07-05 09:22:00,
2013-07-05 05:28:00,65.9,63.5,30.10,South,180,0.0,0.0,92,0.00,,SCT048,0.00,VWS V13.01,2013-07-05 09:28:00,
2013-07-05 05:33:00,65.9,63.5,30.10,South,180,0.0,0.0,92,0.00,,SCT048,0.00,VWS V13.01,2013-07-05 09:33:00,
2013-07-05 05:39:00,65.9,63.5,30.10,South,180,0.0,0.0,92,0.00,,SCT048,0.00,VWS V13.01,2013-07-05 09:39:00,
2013-07-05 05:44:00,65.8,63.4,30.10,South,180,0.0,0.0,92,0.00,,SCT048,0.00,VWS V13.01,2013-07-05 09:44:00,
2013-07-05 05:49:00,65.8,63.4,30.10,South,180,0.0,0.0,92,0.00,,SCT048,0.00,VWS V13.01,2013-07-05 09:49:00,
2013-07-05 05:54:00,65.7,63.3,30.10,South,180,0.0,1.0,92,0.00,,SCT048,0.00,VWS V13.01,2013-07-05 09:54:00,
2013-07-05 05:59:00,65.7,63.3,30.11,South,180,0.0,1.0,92,0.00,,SCT048,0.00,VWS V13.01,2013-07-05 09:59:00,
2013-07-05 06:04:00,65.6,63.2,30.11,South,180,0.0,0.0,92,0.00,,SCT048,0.00,VWS V13.01,2013-07-05 10:04:00,
2013-07-05 06:09:00,65.6,63.2,30.11,South,180,0.0,0.0,92,0.00,,SCT048,0.00,VWS V13.01,2013-07-05 10:09:00,
2013-07-05 06:14:00,65.5,63.1,30.11,South,180,0.0,0.0,92,0.00,,SCT048,0.00,VWS V13.01,2013-07-05 10:14:00,
2013-07-05 06:19:00,65.4,63.0,30.12,South,180,0.0,0.0,92,0.00,,SCT048,0.00,VWS V13.01,2013-07-05 10:19:00,
2013-07-05 06:24:00,65.4,63.0,30.11,South,180,0.0,0.0,92,0.00,,SCT048,0.00,VWS V13.01,2013-07-05 10:24:00,
2013-07-05 06:30:00,65.7,63.3,30.11,South,180,0.0,0.0,92,0.00,,SCT048,0.00,VWS V13.01,2013-07-05 10:30:00,
2013-07-05 06:35:00,65.8,63.4,30.11,South,180,0.0,0.0,92,0.00,,SCT048,0.00,VWS V13.01,2013-07-05 10:35:00,
2013-07-05 06:40:00,66.0,63.6,30.11,South,180,0.0,0.0,92,0.00,,SCT048,0.00,VWS V13.01,2013-07-05 10:40:00,
2013-07-05 06:46:00,66.1,63.7,30.11,SSE,160,0.0,1.0,92,0.00,,SCT048,0.00,VWS V13.01,2013-07-05 10:46:00,
2013-07-05 06:51:00,66.2,63.8,30.12,SSE,161,0.0,1.0,92,0.00,,SCT048,0.00,VWS V13.01,2013-07-05 10:51:00,
2013-07-05 06:56:00,66.2,63.8,30.12,SSE,161,3.0,6.0,92,0.00,,SCT048,0.00,VWS V13.01,2013-07-05 10:56:00,
2013-07-05 07:01:00,66.3,63.9,30.12,SSE,162,0.0,0.0,92,0.00,,SCT048,0.00,VWS V13.01,2013-07-05 11:01:00,
2013-07-05 07:06:00,66.3,63.9,30.13,SSE,162,0.0,0.0,92,0.00,,SCT048,0.00,VWS V13.01,2013-07-05 11:06:00,
2013-07-05 07:11:00,66.3,63.9,30.13,SSE,162,3.0,6.0,92,0.00,,SCT048,0.00,VWS V13.01,2013-07-05 11:11:00,
2013-07-05 07:17:00,66.4,64.0,30.13,SSE,162,0.0,6.0,92,0.00,,SCT048,0.00,VWS V13.01,2013-07-05 11:17:00,
2013-07-05 07:22:00,66.4,64.0,30.13,South,170,5.0,6.0,92,0.00,,SCT048,0.00,VWS V13.01,2013-07-05 11:22:00,
2013-07-05 07:27:00,66.5,64.4,30.13,South,185,5.0,7.0,93,0.00,,SCT048,0.00,VWS V13.01,2013-07-05 11:27:00,
2013-07-05 07:32:00,66.6,64.5,30.13,South,185,0.0,5.0,93,0.00,,SCT048,0.00,VWS V13.01,2013-07-05 11:32:00,
2013-07-05 07:37:00,66.8,64.7,30.13,South,185,5.0,6.0,93,0.00,,SCT048,0.00,VWS V13.01,2013-07-05 11:37:00,
2013-07-05 07:42:00,66.8,64.7,30.13,South,185,0.0,7.0,93,0.00,,SCT048,0.00,VWS V13.01,2013-07-05 11:42:00,
2013-07-05 07:47:00,66.9,64.8,30.13,South,185,3.0,7.0,93,0.00,,SCT048,0.00,VWS V13.01,2013-07-05 11:47:00,
2013-07-05 07:53:00,66.8,64.7,30.13,South,185,0.0,7.0,93,0.00,,SCT048,0.00,VWS V13.01,2013-07-05 11:53:00,
2013-07-05 07:58:00,66.9,64.8,30.14,South,185,0.0,7.0,93,0.00,,SCT048,0.00,VWS V13.01,2013-07-05 11:58:00,
2013-07-05 08:03:00,67.0,64.9,30.14,South,185,0.0,0.0,93,0.00,,SCT048,0.00,VWS V13.01,2013-07-05 12:03:00,
2013-07-05 08:08:00,67.2,65.1,30.14,South,185,0.0,4.0,93,0.00,,SCT048,0.00,VWS V13.01,2013-07-05 12:08:00,
2013-07-05 08:13:00,67.2,65.1,30.14,South,186,2.0,5.0,93,0.00,,SCT048,0.00,VWS V13.01,2013-07-05 12:13:00,
2013-07-05 08:18:00,67.1,65.0,30.14,South,186,0.0,5.0,93,0.00,,SCT048,0.00,VWS V13.01,2013-07-05 12:18:00,
2013-07-05 08:23:00,67.0,64.9,30.14,South,185,0.0,6.0,93,0.00,,SCT048,0.00,VWS V13.01,2013-07-05 12:23:00,
2013-07-05 08:28:00,67.1,65.0,30.14,South,185,2.0,6.0,93,0.00,,SCT048,0.00,VWS V13.01,2013-07-05 12:28:00,
2013-07-05 08:33:00,67.1,65.0,30.14,South,185,0.0,4.0,93,0.00,,SCT048,0.00,VWS V13.01,2013-07-05 12:33:00,
2013-07-05 08:38:00,67.2,65.1,30.15,South,185,0.0,4.0,93,0.00,,SCT048,0.00,VWS V13.01,2013-07-05 12:38:00,
2013-07-05 08:44:00,67.3,65.2,30.15,South,185,0.0,5.0,93,0.00,,SCT048,0.00,VWS V13.01,2013-07-05 12:44:00,
2013-07-05 08:49:00,67.4,65.3,30.15,South,185,0.0,5.0,93,0.00,,,0.00,VWS V13.01,2013-07-05 12:49:00,
2013-07-05 08:54:00,67.2,65.1,30.15,South,187,0.0,6.0,93,0.00,,,0.00,VWS V13.01,2013-07-05 12:54:00,
2013-07-05 08:59:00,67.4,65.3,30.16,South,187,0.0,6.0,93,0.00,,,0.00,VWS V13.01,2013-07-05 12:59:00,
2013-07-05 09:04:00,67.7,65.3,30.16,South,187,0.0,0.0,92,0.00,,,0.00,VWS V13.01,2013-07-05 13:04:00,
2013-07-05 09:09:00,67.8,65.4,30.16,South,187,5.0,5.0,92,0.00,,,0.00,VWS V13.01,2013-07-05 13:09:00,
2013-07-05 09:14:00,67.6,65.2,30.16,South,187,0.0,6.0,92,0.00,,,0.00,VWS V13.01,2013-07-05 13:14:00,
2013-07-05 09:20:00,68.0,65.6,30.16,South,187,0.0,6.0,92,0.00,,,0.00,VWS V13.01,2013-07-05 13:20:00,
2013-07-05 09:25:00,68.1,65.4,30.16,South,187,5.0,6.0,91,0.00,,,0.00,VWS V13.01,2013-07-05 13:25:00,
2013-07-05 09:30:00,68.2,65.2,30.16,South,188,5.0,6.0,90,0.00,,,0.00,VWS V13.01,2013-07-05 13:30:00,
2013-07-05 09:36:00,68.4,65.0,30.16,South,190,3.0,6.0,89,0.00,,,0.00,VWS V13.01,2013-07-05 13:36:00,
2013-07-05 09:41:00,68.6,64.9,30.16,South,190,5.0,6.0,88,0.00,,,0.00,VWS V13.01,2013-07-05 13:41:00,
2013-07-05 09:46:00,68.9,65.2,30.17,SSW,192,6.0,6.0,88,0.00,,,0.00,VWS V13.01,2013-07-05 13:46:00,
2013-07-05 09:51:00,69.1,64.7,30.16,SSW,202,5.0,7.0,86,0.00,,,0.00,VWS V13.01,2013-07-05 13:51:00,
2013-07-05 09:56:00,69.7,65.3,30.16,SSW,209,0.0,7.0,86,0.00,,,0.00,VWS V13.01,2013-07-05 13:56:00,
2013-07-05 10:01:00,70.5,65.1,30.16,SSW,209,0.0,1.0,83,0.00,,,0.00,VWS V13.01,2013-07-05 14:01:00,
2013-07-05 10:06:00,70.9,65.5,30.16,SSW,209,0.0,1.0,83,0.00,,,0.00,VWS V13.01,2013-07-05 14:06:00,
2013-07-05 10:12:00,71.0,65.2,30.16,SSW,209,0.0,1.0,82,0.00,,,0.00,VWS V13.01,2013-07-05 14:12:00,
2013-07-05 10:17:00,70.8,65.0,30.16,SSW,209,0.0,1.0,82,0.00,,,0.00,VWS V13.01,2013-07-05 14:17:00,
2013-07-05 10:21:00,71.1,66.0,30.16,SSW,209,0.0,1.0,84,0.00,,,0.00,VWS V13.01,2013-07-05 14:21:00,
2013-07-05 10:26:00,71.5,65.4,30.16,SSW,209,0.0,1.0,81,0.00,,,0.00,VWS V13.01,2013-07-05 14:26:00,
2013-07-05 10:32:00,72.0,65.9,30.16,SSW,209,0.0,0.0,81,0.00,,,0.00,VWS V13.01,2013-07-05 14:32:00,
2013-07-05 10:37:00,72.5,65.3,30.16,SSW,209,0.0,0.0,78,0.00,,,0.00,VWS V13.01,2013-07-05 14:37:00,
2013-07-05 10:42:00,72.8,65.9,30.16,SSW,209,0.0,0.0,79,0.00,,,0.00,VWS V13.01,2013-07-05 14:42:00,
2013-07-05 10:48:00,73.0,66.5,30.16,SSW,209,0.0,0.0,80,0.00,,OVC010,0.00,VWS V13.01,2013-07-05 14:48:00,
2013-07-05 10:53:00,73.1,66.2,30.16,SSW,209,0.0,0.0,79,0.00,,OVC010,0.00,VWS V13.01,2013-07-05 14:53:00,
2013-07-05 10:58:00,72.9,65.7,30.16,SSW,209,0.0,1.0,78,0.00,,OVC010,0.00,VWS V13.01,2013-07-05 14:58:00,
2013-07-05 11:03:00,73.0,66.1,30.16,SSW,209,0.0,0.0,79,0.00,,OVC010,0.00,VWS V13.01,2013-07-05 15:03:00,
2013-07-05 11:08:00,73.8,66.9,30.16,SSW,209,0.0,1.0,79,0.00,,OVC010,0.00,VWS V13.01,2013-07-05 15:08:00,
2013-07-05 11:13:00,74.3,65.5,30.16,SSW,209,0.0,1.0,74,0.00,,OVC010,0.00,VWS V13.01,2013-07-05 15:13:00,
2013-07-05 11:18:00,73.8,64.2,30.16,SSW,209,0.0,1.0,72,0.00,,OVC010,0.00,VWS V13.01,2013-07-05 15:18:00,
2013-07-05 11:23:00,73.7,65.3,30.16,SSW,209,0.0,1.0,75,0.00,,OVC010,0.00,VWS V13.01,2013-07-05 15:23:00,
2013-07-05 11:28:00,73.7,65.7,30.16,SSW,209,0.0,1.0,76,0.00,,OVC010,0.00,VWS V13.01,2013-07-05 15:28:00,
2013-07-05 11:33:00,73.9,65.5,30.16,SSW,209,0.0,0.0,75,0.00,,OVC010,0.00,VWS V13.01,2013-07-05 15:33:00,
2013-07-05 11:38:00,74.4,66.7,30.16,SSW,207,0.0,5.0,77,0.00,,OVC010,0.00,VWS V13.01,2013-07-05 15:38:00,
2013-07-05 11:43:00,74.3,65.5,30.16,SSW,207,0.0,5.0,74,0.00,,OVC010,0.00,VWS V13.01,2013-07-05 15:43:00,
2013-07-05 11:48:00,74.4,66.0,30.17,SSW,207,0.0,5.0,75,0.00,,BKN012,0.00,VWS V13.01,2013-07-05 15:48:00,
2013-07-05 11:49:00,74.4,66.3,30.17,SSW,207,0.0,5.0,76,0.00,,BKN012,0.00,VWS V13.01,2013-07-05 15:49:00,
2013-07-05 11:54:00,74.3,66.2,30.17,SSW,207,0.0,5.0,76,0.00,,BKN012,0.00,VWS V13.01,2013-07-05 15:54:00,
2013-07-05 11:59:00,74.3,66.2,30.16,SSW,207,0.0,5.0,76,0.00,,BKN012,0.00,VWS V13.01,2013-07-05 15:59:00,
2013-07-05 12:04:00,74.6,66.5,30.16,SSW,202,0.0,6.0,76,0.00,,BKN012,0.00,VWS V13.01,2013-07-05 16:04:00,
2013-07-05 12:09:00,74.7,66.6,30.16,SSW,202,0.0,6.0,76,0.00,,BKN012,0.00,VWS V13.01,2013-07-05 16:09:00,
2013-07-05 12:14:00,75.0,66.9,30.16,SSW,202,0.0,6.0,76,0.00,,BKN012,0.00,VWS V13.01,2013-07-05 16:14:00,
2013-07-05 12:19:00,74.9,66.1,30.16,SSW,202,0.0,6.0,74,0.00,,BKN012,0.00,VWS V13.01,2013-07-05 16:19:00,
2013-07-05 12:24:00,74.9,66.1,30.16,SSW,202,0.0,6.0,74,0.00,,BKN012,0.00,VWS V13.01,2013-07-05 16:24:00,
2013-07-05 12:29:00,75.1,66.6,30.16,SSW,202,0.0,6.0,75,0.00,,BKN012,0.00,VWS V13.01,2013-07-05 16:29:00,
2013-07-05 12:34:00,75.4,67.3,30.15,SSW,202,0.0,1.0,76,0.00,,BKN012,0.00,VWS V13.01,2013-07-05 16:34:00,
2013-07-05 12:39:00,75.3,66.1,30.16,SSW,202,0.0,1.0,73,0.00,,BKN012,0.00,VWS V13.01,2013-07-05 16:39:00,
2013-07-05 12:44:00,75.3,66.4,30.16,SSW,202,0.0,1.0,74,0.00,,BKN012,0.00,VWS V13.01,2013-07-05 16:44:00,
2013-07-05 12:49:00,75.3,65.7,30.16,SSW,202,0.0,1.0,72,0.00,,OVC050,0.00,VWS V13.01,2013-07-05 16:49:00,
2013-07-05 12:54:00,75.7,66.4,30.15,SSW,202,0.0,2.0,73,0.00,,OVC050,0.00,VWS V13.01,2013-07-05 16:54:00,
2013-07-05 12:59:00,76.1,66.8,30.16,SSW,202,0.0,2.0,73,0.00,,OVC050,0.00,VWS V13.01,2013-07-05 16:59:00,
2013-07-05 13:04:00,76.5,66.4,30.15,SSW,198,0.0,2.0,71,0.00,,OVC050,0.00,VWS V13.01,2013-07-05 17:04:00,
2013-07-05 13:09:00,76.9,67.6,30.15,SSW,198,0.0,4.0,73,0.00,,OVC050,0.00,VWS V13.01,2013-07-05 17:09:00,
2013-07-05 13:14:00,77.5,66.9,30.15,SSW,198,0.0,4.0,70,0.00,,OVC050,0.00,VWS V13.01,2013-07-05 17:14:00,
2013-07-05 13:19:00,77.9,66.9,30.15,SE,144,0.0,5.0,69,0.00,,OVC050,0.00,VWS V13.01,2013-07-05 17:19:00,
2013-07-05 13:24:00,77.8,66.0,30.15,SE,145,0.0,5.0,67,0.00,,OVC050,0.00,VWS V13.01,2013-07-05 17:24:00,
2013-07-05 13:29:00,77.5,67.4,30.14,SSE,149,0.0,5.0,71,0.00,,OVC050,0.00,VWS V13.01,2013-07-05 17:29:00,
2013-07-05 13:34:00,77.8,67.7,30.14,SSE,148,0.0,1.0,71,0.00,,OVC050,0.00,VWS V13.01,2013-07-05 17:34:00,
2013-07-05 13:39:00,77.9,65.2,30.14,SSE,148,0.0,1.0,65,0.00,,OVC050,0.00,VWS V13.01,2013-07-05 17:39:00,
2013-07-05 13:44:00,77.9,66.1,30.14,SSE,149,0.0,1.0,67,0.00,,OVC050,0.00,VWS V13.01,2013-07-05 17:44:00,
2013-07-05 13:49:00,78.2,66.4,30.14,SSE,149,0.0,1.0,67,0.00,,OVC055,0.00,VWS V13.01,2013-07-05 17:49:00,
2013-07-05 13:54:00,78.7,67.3,30.14,SSE,149,0.0,1.0,68,0.00,,OVC055,0.00,VWS V13.01,2013-07-05 17:54:00,
2013-07-05 13:59:00,79.0,67.6,30.14,SSE,149,0.0,1.0,68,0.00,,OVC055,0.00,VWS V13.01,2013-07-05 17:59:00,
2013-07-05 14:04:00,78.7,65.1,30.14,SSE,149,0.0,0.0,63,0.00,,OVC055,0.00,VWS V13.01,2013-07-05 18:04:00,
2013-07-05 14:09:00,78.6,67.6,30.14,SSE,149,0.0,4.0,69,0.00,,OVC055,0.00,VWS V13.01,2013-07-05 18:09:00,
2013-07-05 14:14:00,78.7,66.4,30.14,SSE,149,0.0,4.0,66,0.00,,OVC055,0.00,VWS V13.01,2013-07-05 18:14:00,
2013-07-05 14:19:00,78.4,64.8,30.14,SSE,148,0.0,4.0,63,0.00,,OVC055,0.00,VWS V13.01,2013-07-05 18:19:00,
2013-07-05 14:24:00,78.0,66.2,30.14,SSE,148,0.0,4.0,67,0.00,,OVC055,0.00,VWS V13.01,2013-07-05 18:24:00,
2013-07-05 14:29:00,78.4,65.2,30.13,SSE,148,0.0,4.0,64,0.00,,OVC055,0.00,VWS V13.01,2013-07-05 18:29:00,
2013-07-05 14:34:00,78.7,67.3,30.13,SSE,168,2.0,7.0,68,0.00,,OVC055,0.00,VWS V13.01,2013-07-05 18:34:00,
2013-07-05 14:39:00,78.8,67.4,30.13,South,172,0.0,7.0,68,0.00,,OVC055,0.00,VWS V13.01,2013-07-05 18:39:00,
2013-07-05 14:44:00,79.2,68.6,30.14,South,189,7.0,10.0,70,0.00,,OVC055,0.00,VWS V13.01,2013-07-05 18:44:00,
2013-07-05 14:49:00,79.6,69.4,30.13,South,181,7.0,10.0,71,0.00,,BKN055,0.00,VWS V13.01,2013-07-05 18:49:00,
2013-07-05 14:54:00,79.3,66.5,30.13,South,178,0.0,10.0,65,0.00,,BKN055,0.00,VWS V13.01,2013-07-05 18:54:00,
2013-07-05 14:59:00,78.8,66.9,30.13,South,178,0.0,10.0,67,0.00,,BKN055,0.00,VWS V13.01,2013-07-05 18:59:00,
2013-07-05 15:04:00,79.0,68.8,30.13,South,178,0.0,2.0,71,0.00,,BKN055,0.00,VWS V13.01,2013-07-05 19:04:00,
2013-07-05 15:09:00,79.2,67.7,30.13,SE,144,0.0,6.0,68,0.00,,BKN055,0.00,VWS V13.01,2013-07-05 19:09:00,
2013-07-05 15:14:00,79.4,68.8,30.13,South,173,1.0,10.0,70,0.00,,BKN055,0.00,VWS V13.01,2013-07-05 19:14:00,
2013-07-05 15:19:00,80.0,68.5,30.13,SE,126,0.0,10.0,68,0.00,,BKN055,0.00,VWS V13.01,2013-07-05 19:19:00,
2013-07-05 15:24:00,80.1,66.4,30.12,East,91,2.0,10.0,63,0.00,,BKN055,0.00,VWS V13.01,2013-07-05 19:24:00,
2013-07-05 15:29:00,79.4,66.6,30.12,East,96,0.0,10.0,65,0.00,,BKN055,0.00,VWS V13.01,2013-07-05 19:29:00,
2013-07-05 15:34:00,79.2,66.4,30.12,East,98,0.0,3.0,65,0.00,,BKN055,0.00,VWS V13.01,2013-07-05 19:34:00,
2013-07-05 15:39:00,79.3,67.8,30.12,SE,126,1.0,5.0,68,0.00,,BKN055,0.00,VWS V13.01,2013-07-05 19:39:00,
2013-07-05 15:44:00,80.0,68.9,30.11,SE,128,0.0,6.0,69,0.00,,BKN055,0.00,VWS V13.01,2013-07-05 19:44:00,
2013-07-05 15:49:00,80.8,68.8,30.11,ESE,111,3.0,7.0,67,0.00,,SCT050,0.00,VWS V13.01,2013-07-05 19:49:00,
2013-07-05 15:54:00,80.6,67.8,30.11,SE,144,0.0,7.0,65,0.00,,SCT050,0.00,VWS V13.01,2013-07-05 19:54:00,
2013-07-05 15:59:00,80.3,69.2,30.11,SSE,163,0.0,7.0,69,0.00,,SCT050,0.00,VWS V13.01,2013-07-05 19:59:00,
2013-07-05 16:04:00,80.4,67.6,30.11,SSE,163,0.0,3.0,65,0.00,,SCT050,0.00,VWS V13.01,2013-07-05 20:04:00,
2013-07-05 16:09:00,80.7,68.3,30.11,South,171,4.0,7.0,66,0.00,,SCT050,0.00,VWS V13.01,2013-07-05 20:09:00,
2013-07-05 16:14:00,80.5,70.2,30.11,South,171,0.0,7.0,71,0.00,,SCT050,0.00,VWS V13.01,2013-07-05 20:14:00,
2013-07-05 16:19:00,80.8,67.0,30.11,South,170,0.0,9.0,63,0.00,,SCT050,0.00,VWS V13.01,2013-07-05 20:19:00,
2013-07-05 16:24:00,81.1,69.1,30.11,SSE,151,5.0,10.0,67,0.00,,SCT050,0.00,VWS V13.01,2013-07-05 20:24:00,
2013-07-05 16:25:00,81.1,68.2,30.11,SSE,147,5.0,10.0,65,0.00,,SCT050,0.00,VWS V13.01,2013-07-05 20:25:00,
2013-07-05 16:30:00,79.8,67.0,30.11,SSE,151,0.0,10.0,65,0.00,,SCT050,0.00,VWS V13.01,2013-07-05 20:30:00,
2013-07-05 16:35:00,78.8,67.8,30.12,South,180,3.0,8.0,69,0.00,,SCT050,0.00,VWS V13.01,2013-07-05 20:35:00,
2013-07-05 16:40:00,78.4,68.6,30.12,SSE,165,2.0,8.0,72,0.00,,SCT050,0.00,VWS V13.01,2013-07-05 20:40:00,
2013-07-05 16:45:00,78.4,68.2,30.11,SSE,153,0.0,8.0,71,0.00,,SCT050,0.00,VWS V13.01,2013-07-05 20:45:00,
2013-07-05 16:50:00,78.7,68.5,30.11,SSE,153,0.0,8.0,71,0.00,,BKN065,0.00,VWS V13.01,2013-07-05 20:50:00,
2013-07-05 16:55:00,79.8,69.2,30.11,South,190,4.0,8.0,70,0.00,,BKN065,0.00,VWS V13.01,2013-07-05 20:55:00,
2013-07-05 17:00:00,80.6,68.6,30.12,South,184,7.0,10.0,67,0.00,,BKN065,0.00,VWS V13.01,2013-07-05 21:00:00,
2013-07-05 17:05:00,80.8,69.3,30.12,SSE,153,5.0,16.0,68,0.00,,BKN065,0.00,VWS V13.01,2013-07-05 21:05:00,
2013-07-05 17:10:00,79.1,67.6,30.12,SSE,157,7.0,16.0,68,0.00,,BKN065,0.00,VWS V13.01,2013-07-05 21:10:00,
2013-07-05 17:15:00,78.2,67.6,30.12,South,173,7.0,16.0,70,0.00,,BKN065,0.00,VWS V13.01,2013-07-05 21:15:00,
2013-07-05 17:20:00,78.0,68.7,30.11,SSE,165,5.0,16.0,73,0.00,,BKN065,0.00,VWS V13.01,2013-07-05 21:20:00,
2013-07-05 17:25:00,77.9,67.8,30.11,SSE,151,5.0,16.0,71,0.00,,BKN065,0.00,VWS V13.01,2013-07-05 21:25:00,
2013-07-05 17:30:00,77.7,67.1,30.10,SSE,157,4.0,16.0,70,0.00,,BKN065,0.00,VWS V13.01,2013-07-05 21:30:00,
2013-07-05 17:35:00,77.6,68.3,30.10,South,175,8.0,11.0,73,0.00,,BKN065,0.00,VWS V13.01,2013-07-05 21:35:00,
2013-07-05 17:40:00,77.7,68.0,30.10,South,174,5.0,11.0,72,0.00,,BKN065,0.00,VWS V13.01,2013-07-05 21:40:00,
2013-07-05 17:45:00,77.8,67.2,30.10,South,169,0.0,11.0,70,0.00,,BKN065,0.00,VWS V13.01,2013-07-05 21:45:00,
2013-07-05 17:50:00,77.8,68.1,30.10,SSE,164,0.0,11.0,72,0.00,,BKN065,0.00,VWS V13.01,2013-07-05 21:50:00,
2013-07-05 17:55:00,77.6,67.9,30.10,South,173,10.0,11.0,72,0.00,,BKN065,0.00,VWS V13.01,2013-07-05 21:55:00,
2013-07-05 18:00:00,77.6,67.9,30.10,South,173,0.0,11.0,72,0.00,,BKN065,0.00,VWS V13.01,2013-07-05 22:00:00,
2013-07-05 18:05:00,77.7,67.6,30.10,South,182,0.0,9.0,71,0.00,,BKN065,0.00,VWS V13.01,2013-07-05 22:05:00,
2013-07-05 18:10:00,78.3,68.1,30.10,South,180,4.0,9.0,71,0.00,,BKN065,0.00,VWS V13.01,2013-07-05 22:10:00,
2013-07-05 18:15:00,78.7,67.7,30.10,South,182,3.0,11.0,69,0.00,,BKN065,0.00,VWS V13.01,2013-07-05 22:15:00,
2013-07-05 18:20:00,78.8,67.4,30.10,South,185,0.0,12.0,68,0.00,,BKN065,0.00,VWS V13.01,2013-07-05 22:20:00,
2013-07-05 18:25:00,78.9,67.4,30.09,SSW,192,5.0,12.0,68,0.00,,BKN065,0.00,VWS V13.01,2013-07-05 22:25:00,
2013-07-05 18:30:00,79.1,67.2,30.09,South,183,2.0,12.0,67,0.00,,BKN065,0.00,VWS V13.01,2013-07-05 22:30:00,
2013-07-05 18:35:00,79.1,67.6,30.09,SSW,202,11.0,14.0,68,0.00,,BKN065,0.00,VWS V13.01,2013-07-05 22:35:00,
2013-07-05 18:40:00,79.1,68.1,30.09,SSW,192,3.0,14.0,69,0.00,,BKN065,0.00,VWS V13.01,2013-07-05 22:40:00,
2013-07-05 18:45:00,78.9,67.4,30.09,SSW,206,4.0,14.0,68,0.00,,BKN065,0.00,VWS V13.01,2013-07-05 22:45:00,
2013-07-05 18:50:00,78.9,67.9,30.09,SSW,194,0.0,14.0,69,0.00,,BKN065,0.00,VWS V13.01,2013-07-05 22:50:00,
2013-07-05 18:55:00,79.2,68.6,30.08,SSW,207,5.0,14.0,70,0.00,,BKN065,0.00,VWS V13.01,2013-07-05 22:55:00,
2013-07-05 19:00:00,79.3,67.8,30.09,SSW,202,0.0,14.0,68,0.00,,BKN065,0.00,VWS V13.01,2013-07-05 23:00:00,
2013-07-05 19:05:00,79.4,67.9,30.08,SSW,207,0.0,5.0,68,0.00,,BKN065,0.00,VWS V13.01,2013-07-05 23:05:00,
2013-07-05 19:10:00,79.1,67.2,30.08,SSW,195,7.0,10.0,67,0.00,,BKN065,0.00,VWS V13.01,2013-07-05 23:10:00,
2013-07-05 19:15:00,78.7,67.3,30.08,South,191,0.0,10.0,68,0.00,,BKN065,0.00,VWS V13.01,2013-07-05 23:15:00,
2013-07-05 19:20:00,78.6,67.6,30.08,SSW,192,0.0,10.0,69,0.00,,BKN065,0.00,VWS V13.01,2013-07-05 23:20:00,
2013-07-05 19:25:00,78.4,67.8,30.09,SSW,192,0.0,10.0,70,0.00,,BKN065,0.00,VWS V13.01,2013-07-05 23:25:00,
2013-07-05 19:30:00,78.4,67.8,30.09,SSW,192,0.0,10.0,70,0.00,,BKN065,0.00,VWS V13.01,2013-07-05 23:30:00,
2013-07-05 19:35:00,78.4,67.8,30.09,SSW,192,0.0,0.0,70,0.00,,BKN065,0.00,VWS V13.01,2013-07-05 23:35:00,
2013-07-05 19:40:00,78.5,67.9,30.09,South,191,0.0,0.0,70,0.00,,BKN065,0.00,VWS V13.01,2013-07-05 23:40:00,
2013-07-05 19:45:00,78.6,67.6,30.09,South,191,4.0,6.0,69,0.00,,BKN065,0.00,VWS V13.01,2013-07-05 23:45:00,
2013-07-05 19:50:00,78.2,67.2,30.09,South,189,4.0,9.0,69,0.00,,BKN065,0.00,VWS V13.01,2013-07-05 23:50:00,
2013-07-05 19:55:00,78.0,66.6,30.09,South,188,0.0,9.0,68,0.00,,BKN065,0.00,VWS V13.01,2013-07-05 23:55:00,
2013-07-05 20:00:00,77.7,67.1,30.09,South,188,0.0,9.0,70,0.00,,BKN065,0.00,VWS V13.01,2013-07-06 00:00:00,
2013-07-05 20:05:00,77.5,67.4,30.08,South,188,0.0,4.0,71,0.00,,BKN065,0.00,VWS V13.01,2013-07-06 00:05:00,
2013-07-05 20:10:00,77.4,67.3,30.09,South,188,0.0,4.0,71,0.00,,BKN065,0.00,VWS V13.01,2013-07-06 00:10:00,
2013-07-05 20:15:00,77.2,67.9,30.09,South,188,0.0,4.0,73,0.00,,BKN065,0.00,VWS V13.01,2013-07-06 00:15:00,
2013-07-05 20:20:00,76.7,67.8,30.09,South,188,0.0,4.0,74,0.00,,BKN065,0.00,VWS V13.01,2013-07-06 00:20:00,
2013-07-05 20:25:00,76.4,67.9,30.09,South,188,0.0,4.0,75,0.00,,BKN065,0.00,VWS V13.01,2013-07-06 00:25:00,
2013-07-05 20:30:00,76.0,67.1,30.09,South,179,0.0,7.0,74,0.00,,BKN065,0.00,VWS V13.01,2013-07-06 00:30:00,
2013-07-05 20:35:00,75.7,67.2,30.09,South,180,0.0,6.0,75,0.00,,BKN065,0.00,VWS V13.01,2013-07-06 00:35:00,
2013-07-05 20:40:00,75.5,67.0,30.09,South,179,0.0,6.0,75,0.00,,BKN065,0.00,VWS V13.01,2013-07-06 00:40:00,
2013-07-05 20:45:00,75.1,66.6,30.10,South,179,0.0,6.0,75,0.00,,BKN065,0.00,VWS V13.01,2013-07-06 00:45:00,
2013-07-05 20:50:00,74.9,66.4,30.10,South,179,0.0,6.0,75,0.00,,BKN065,0.00,VWS V13.01,2013-07-06 00:50:00,
2013-07-05 20:55:00,74.6,66.5,30.10,South,179,0.0,6.0,76,0.00,,BKN065,0.00,VWS V13.01,2013-07-06 00:55:00,
2013-07-05 21:00:00,74.4,66.7,30.10,South,179,0.0,6.0,77,0.00,,BKN065,0.00,VWS V13.01,2013-07-06 01:00:00,
2013-07-05 21:05:00,74.2,66.5,30.10,South,178,5.0,6.0,77,0.00,,BKN065,0.00,VWS V13.01,2013-07-06 01:05:00,
2013-07-05 21:10:00,74.1,66.4,30.10,South,177,0.0,6.0,77,0.00,,BKN065,0.00,VWS V13.01,2013-07-06 01:10:00,
2013-07-05 21:15:00,73.9,66.6,30.11,South,177,0.0,6.0,78,0.00,,BKN065,0.00,VWS V13.01,2013-07-06 01:15:00,
2013-07-05 21:20:00,73.6,66.7,30.10,South,179,4.0,6.0,79,0.00,,BKN065,0.00,VWS V13.01,2013-07-06 01:20:00,
2013-07-05 21:25:00,73.4,66.9,30.10,South,178,4.0,6.0,80,0.00,,BKN065,0.00,VWS V13.01,2013-07-06 01:25:00,
2013-07-05 21:30:00,73.1,66.9,30.11,South,178,0.0,6.0,81,0.00,,BKN065,0.00,VWS V13.01,2013-07-06 01:30:00,
2013-07-05 21:35:00,72.9,67.1,30.11,South,178,0.0,4.0,82,0.00,,BKN065,0.00,VWS V13.01,2013-07-06 01:35:00,
2013-07-05 21:40:00,72.7,66.9,30.10,South,177,0.0,4.0,82,0.00,,BKN065,0.00,VWS V13.01,2013-07-06 01:40:00,
2013-07-05 21:45:00,72.5,67.1,30.10,South,177,5.0,5.0,83,0.00,,BKN065,0.00,VWS V13.01,2013-07-06 01:45:00,
2013-07-05 21:50:00,72.4,66.9,30.10,South,175,4.0,7.0,83,0.00,,BKN065,0.00,VWS V13.01,2013-07-06 01:50:00,
2013-07-05 21:55:00,72.4,67.3,30.11,South,175,0.0,7.0,84,0.00,,BKN065,0.00,VWS V13.01,2013-07-06 01:55:00,
2013-07-05 22:00:00,72.2,67.1,30.11,South,174,0.0,7.0,84,0.00,,BKN065,0.00,VWS V13.01,2013-07-06 02:00:00,
2013-07-05 22:05:00,72.1,67.0,30.11,South,173,3.0,6.0,84,0.00,,BKN065,0.00,VWS V13.01,2013-07-06 02:05:00,
2013-07-05 22:10:00,72.0,66.9,30.11,South,172,0.0,6.0,84,0.00,,BKN065,0.00,VWS V13.01,2013-07-06 02:10:00,
2013-07-05 22:15:00,72.0,66.9,30.11,South,171,0.0,6.0,84,0.00,,BKN065,0.00,VWS V13.01,2013-07-06 02:15:00,
2013-07-05 22:20:00,71.9,66.8,30.11,South,171,0.0,6.0,84,0.00,,BKN065,0.00,VWS V13.01,2013-07-06 02:20:00,
2013-07-05 22:25:00,71.9,66.8,30.11,South,171,0.0,6.0,84,0.00,,BKN065,0.00,VWS V13.01,2013-07-06 02:25:00,
2013-07-05 22:30:00,71.9,66.8,30.12,South,170,0.0,6.0,84,0.00,,BKN065,0.00,VWS V13.01,2013-07-06 02:30:00,
2013-07-05 22:35:00,71.9,66.8,30.12,South,170,0.0,0.0,84,0.00,,BKN065,0.00,VWS V13.01,2013-07-06 02:35:00,
2013-07-05 22:40:00,71.8,66.7,30.12,South,170,0.0,0.0,84,0.00,,BKN065,0.00,VWS V13.01,2013-07-06 02:40:00,
2013-07-05 22:45:00,71.7,66.6,30.12,South,170,0.0,0.0,84,0.00,,BKN065,0.00,VWS V13.01,2013-07-06 02:45:00,
2013-07-05 22:50:00,71.5,66.8,30.12,South,170,0.0,0.0,85,0.00,,BKN065,0.00,VWS V13.01,2013-07-06 02:50:00,
2013-07-05 22:55:00,71.3,66.6,30.12,South,170,0.0,0.0,85,0.00,,BKN065,0.00,VWS V13.01,2013-07-06 02:55:00,
2013-07-05 23:00:00,71.3,66.9,30.12,South,170,0.0,0.0,86,0.00,,BKN065,0.00,VWS V13.01,2013-07-06 03:00:00,
2013-07-05 23:05:00,71.2,67.1,30.13,South,170,0.0,0.0,87,0.00,,BKN065,0.00,VWS V13.01,2013-07-06 03:05:00,
2013-07-05 23:10:00,71.0,66.9,30.13,South,170,0.0,0.0,87,0.00,,BKN065,0.00,VWS V13.01,2013-07-06 03:10:00,
2013-07-05 23:15:00,70.9,66.8,30.13,South,170,0.0,0.0,87,0.00,,BKN065,0.00,VWS V13.01,2013-07-06 03:15:00,
2013-07-05 23:20:00,70.9,66.8,30.13,SSE,167,0.0,0.0,87,0.00,,BKN065,0.00,VWS V13.01,2013-07-06 03:20:00,
2013-07-05 23:25:00,71.0,66.9,30.13,SSE,167,0.0,0.0,87,0.00,,BKN065,0.00,VWS V13.01,2013-07-06 03:25:00,
2013-07-05 23:30:00,71.0,66.9,30.13,SSE,166,0.0,1.0,87,0.00,,BKN065,0.00,VWS V13.01,2013-07-06 03:30:00,
2013-07-05 23:35:00,70.9,66.8,30.13,SSE,166,0.0,0.0,87,0.00,,BKN065,0.00,VWS V13.01,2013-07-06 03:35:00,
2013-07-05 23:40:00,70.8,66.7,30.13,SSE,166,0.0,0.0,87,0.00,,BKN065,0.00,VWS V13.01,2013-07-06 03:40:00,
2013-07-05 23:45:00,70.7,66.7,30.13,SSE,166,0.0,0.0,87,0.00,,BKN065,0.00,VWS V13.01,2013-07-06 03:45:00,
2013-07-05 23:50:00,70.7,66.7,30.14,SSE,166,0.0,0.0,87,0.00,,BKN065,0.00,VWS V13.01,2013-07-06 03:50:00,
2013-07-05 23:55:00,70.6,66.6,30.14,SSE,166,0.0,0.0,87,0.00,,BKN065,0.00,VWS V13.01,2013-07-06 03:55:00,